Theta_e
345 346 346 346 346 347 347 346 346 346 345 344 344 345 345 345 345 345 346 345 345 345 346 347 345 343 343 343 344 345 344 344 343 341 340 341 343 344 343 342 339 340 342 341 341 341 341 341 339 339 340 340 339 339 340 341 339 339 340 339 339 339 340 340 339 339 339 340 340 341 341 340 341 340 339 339 340 341 340 341 342 342 341 340 340
346 346 345 346 346 346 347 347 347 346 347 345 345 346 345 345 346 346 347 346 346 346 346 348 348 346 346 344 343 344 343 343 343 343 341 342 345 347 347 344 340 340 341 341 341 341 341 342 340 339 339 338 339 340 340 341 340 339 339 339 339 338 339 340 339 339 339 340 340 341 341 340 341 341 342 341 341 341 341 342 342 341 339 338 339
346 346 345 345 346 347 347 347 347 347 348 347 346 346 346 346 346 346 346 346 346 346 347 349 349 348 348 345 343 344 344 343 344 346 346 343 343 346 348 345 341 340 341 341 342 342 342 342 341 339 338 337 338 339 340 341 340 339 339 338 339 338 338 339 339 340 338 339 340 340 341 340 340 340 341 341 340 340 340 341 341 340 339 338 338
346 346 345 346 346 346 347 347 347 347 347 347 347 347 346 346 346 346 346 346 346 346 347 348 349 348 348 346 345 345 344 343 343 344 345 344 343 344 347 347 343 340 341 342 342 343 342 342 342 340 338 337 337 338 340 341 340 340 340 338 338 338 338 340 340 340 339 339 339 340 340 340 339 339 340 340 340 339 338 339 340 340 338 338 339
347 346 346 347 347 346 347 347 346 346 347 347 347 347 347 347 346 346 346 347 347 347 347 347 348 348 348 347 345 345 345 344 344 343 343 343 344 345 346 348 347 343 341 342 342 343 343 342 342 342 340 337 336 337 339 341 340 340 340 339 339 338 339 340 340 340 339 339 339 339 340 340 339 339 340 340 340 339 338 339 340 340 339 338 339
347 347 346 347 347 347 347 347 346 346 347 347 347 347 347 347 347 347 347 347 348 347 347 347 347 347 348 347 345 346 346 345 345 345 344 344 345 347 347 348 348 347 344 343 342 342 344 343 342 342 341 339 337 337 338 340 340 340 340 341 340 339 339 340 340 340 340 340 339 339 339 339 339 339 340 339 340 339 338 339 340 340 339 338 339
347 347 347 347 347 347 347 347 347 347 348 347 347 347 347 346 347 347 347 347 347 347 347 347 347 346 347 346 346 346 346 346 346 345 344 344 346 347 347 348 348 348 347 346 345 342 343 343 342 342 342 341 338 337 337 338 340 340 340 341 341 341 340 340 341 341 341 340 340 339 340 340 339 340 340 340 340 339 339 340 340 339 338 337 337
347 347 347 347 347 347 347 348 348 347 347 347 346 347 348 347 347 347 346 347 347 347 347 347 347 346 347 347 347 347 346 346 346 346 346 346 347 347 347 348 348 349 348 348 348 345 344 343 343 342 342 342 339 337 337 337 338 339 340 340 341 341 341 340 341 342 341 340 340 340 340 340 340 340 340 340 340 340 339 340 340 339 338 337 336
346 347 347 347 347 347 347 348 347 347 346 347 347 348 348 348 348 347 347 347 346 347 347 347 346 346 347 348 348 348 347 346 345 346 347 347 347 347 347 348 349 349 349 349 349 348 347 344 343 342 342 342 340 338 337 336 336 338 340 340 340 341 341 341 341 341 341 340 341 340 340 341 340 341 341 340 340 340 339 339 340 339 339 339 338
345 345 346 347 347 348 347 348 347 346 347 347 348 348 347 347 348 348 347 348 347 347 348 347 347 347 347 347 347 347 346 346 345 345 346 347 348 348 348 348 349 349 348 348 348 349 349 347 344 343 342 341 341 340 338 336 335 336 338 339 339 340 340 340 340 341 341 341 341 340 340 340 340 341 341 340 340 340 339 339 340 339 338 339 339
345 346 347 346 346 346 347 347 347 347 347 347 348 348 347 347 347 347 347 348 347 347 347 347 347 348 348 346 347 347 347 346 346 346 347 346 348 349 349 349 349 349 348 348 348 348 350 349 347 344 343 341 340 340 338 336 336 336 336 337 339 340 340 340 341 341 341 341 341 341 341 341 341 341 341 341 340 340 339 339 339 338 338 339 339
346 346 347 346 346 346 346 346 346 346 347 347 348 348 347 347 348 348 348 348 348 347 347 347 347 347 347 346 347 346 347 347 346 346 347 346 346 348 349 349 349 349 349 348 348 349 349 350 349 347 346 344 341 340 339 337 337 337 336 337 338 340 340 340 341 341 342 341 341 341 341 341 341 341 341 341 340 340 340 339 339 339 338 339 339
344 344 345 345 346 346 345 346 346 346 346 346 347 347 346 346 347 348 349 349 349 347 346 347 346 347 347 346 347 347 346 347 347 347 347 347 347 349 350 350 350 349 349 348 349 349 348 350 350 349 349 349 344 339 340 339 338 337 336 336 337 339 340 340 341 342 342 341 341 341 341 341 341 341 341 341 340 340 340 339 339 339 339 339 339
337 338 339 341 343 344 344 344 345 345 345 345 346 345 345 346 347 348 348 349 350 347 346 346 346 347 347 347 347 347 347 348 348 347 348 348 349 350 350 351 350 349 349 349 349 349 348 349 350 350 352 352 348 342 341 341 339 338 336 334 333 335 337 340 341 341 342 342 342 341 341 342 342 341 341 341 341 340 340 339 339 339 339 339 339
331 330 332 334 334 336 339 339 340 341 341 343 343 343 343 344 345 346 347 348 349 349 347 346 346 347 348 348 347 347 347 347 348 348 348 348 349 350 351 351 351 350 349 349 349 349 349 348 350 351 352 353 351 348 345 341 339 338 335 332 330 329 331 336 340 341 341 342 342 342 342 342 342 342 342 342 341 341 340 340 340 340 339 339 339
331 331 332 333 331 330 332 333 333 334 337 338 338 339 340 341 342 342 344 345 347 349 349 348 347 348 348 348 348 349 349 347 347 348 348 348 349 349 350 350 350 350 350 350 349 350 349 349 349 351 351 352 352 351 349 345 340 340 338 333 332 329 328 330 334 337 340 341 342 343 343 342 342 342 343 342 341 342 341 341 341 340 340 340 340
328 328 329 331 331 331 331 331 328 328 331 334 333 334 336 338 339 340 341 343 344 346 348 349 349 348 348 348 349 349 349 347 347 347 347 348 348 348 348 349 349 349 350 349 349 350 350 349 349 350 351 352 352 352 352 349 344 343 342 339 337 334 330 328 328 330 335 339 341 342 342 342 342 343 342 342 342 341 342 341 341 341 341 340 341
324 324 324 326 328 328 327 328 328 328 329 331 331 333 335 335 336 338 339 339 341 344 346 348 349 349 348 348 347 347 347 347 347 346 347 346 346 348 348 348 348 349 349 350 350 350 350 350 349 350 351 352 352 352 352 351 347 343 343 343 341 340 335 330 328 328 329 332 337 340 341 342 343 343 342 343 343 342 341 341 341 341 341 341 341
324 324 324 324 327 328 326 326 329 330 331 333 334 335 336 333 332 335 337 338 339 341 343 345 347 349 348 348 347 347 347 347 347 347 347 346 346 347 347 348 348 348 348 349 349 350 349 350 350 350 351 352 352 351 352 352 349 345 343 344 344 343 339 334 331 330 329 328 331 335 340 342 342 343 342 342 343 342 341 341 341 341 341 342 342
322 324 323 323 325 328 328 328 330 330 330 334 335 335 336 333 332 333 335 336 337 338 340 342 343 345 346 347 348 348 348 347 347 346 346 346 346 347 346 347 347 347 348 348 349 349 349 349 350 350 350 352 353 352 352 352 351 348 344 344 345 344 342 339 335 333 332 330 329 331 334 337 341 342 341 341 342 342 341 341 341 341 340 341 341
324 323 321 321 323 324 328 329 329 329 329 331 332 333 333 333 332 333 332 333 335 336 339 340 341 342 343 344 346 348 349 349 348 346 346 346 346 345 345 346 346 346 347 347 347 348 349 349 349 349 350 351 352 353 352 352 352 350 346 345 345 345 344 342 340 338 336 335 333 331 330 332 336 339 341 341 341 341 342 341 341 340 339 339 339
328 326 323 323 322 323 328 330 329 329 329 329 330 332 333 331 331 332 332 331 333 335 336 337 338 339 340 341 342 345 347 348 348 348 348 348 347 347 346 346 346 346 346 347 347 347 348 349 348 349 350 350 352 353 352 353 352 352 349 345 345 345 344 343 343 341 341 340 338 337 334 331 331 333 337 340 342 342 342 341 341 341 340 339 337
330 329 329 329 327 325 328 329 329 329 329 329 329 331 333 331 330 331 331 330 333 334 335 336 337 337 338 340 340 342 343 344 346 347 348 348 348 347 347 346 347 347 345 347 348 348 347 349 348 348 349 350 351 352 353 353 352 351 351 348 345 346 345 344 345 344 343 344 343 342 340 337 334 332 332 333 337 341 343 342 341 341 341 340 339
330 330 331 332 331 329 328 327 328 328 329 329 329 329 330 330 330 331 330 330 332 334 335 336 337 338 339 340 339 340 340 341 343 345 348 348 348 347 346 346 346 347 346 346 348 348 347 348 349 348 349 349 350 351 353 353 351 350 350 348 345 346 346 345 345 345 345 344 345 344 344 343 341 338 334 331 330 334 338 341 341 340 341 341 340
330 330 328 330 332 330 326 326 328 327 327 327 328 329 329 329 332 332 331 331 330 331 331 333 333 335 338 338 336 336 336 338 341 343 346 347 348 347 347 346 346 346 345 346 347 348 347 348 348 348 349 349 349 351 351 352 353 351 348 348 346 345 347 346 346 346 346 345 345 345 345 345 344 343 341 336 332 329 330 335 340 341 341 340 340
329 327 324 325 329 328 325 325 327 328 327 327 328 330 330 331 332 332 332 332 331 331 330 330 330 329 332 334 335 337 337 337 339 342 344 346 348 347 347 347 347 347 345 344 345 347 348 348 348 348 349 349 349 350 350 351 353 351 348 348 348 345 345 346 347 346 346 346 346 346 345 345 345 345 344 342 338 333 328 328 334 338 340 340 339
326 324 321 322 325 326 325 326 327 327 327 327 328 330 331 331 330 330 332 332 331 332 332 333 332 329 329 331 333 337 338 337 338 339 340 341 343 346 346 347 347 348 348 345 344 345 347 348 348 348 348 349 349 350 351 351 352 351 349 349 350 347 344 345 346 346 346 346 346 346 346 346 346 345 345 345 343 339 334 329 328 331 336 339 339
326 324 322 323 324 325 326 327 326 326 326 327 328 330 329 329 328 328 331 332 332 332 333 335 334 333 333 332 333 335 335 334 334 335 335 336 338 340 343 346 347 347 348 347 346 345 345 347 348 348 349 349 350 350 350 351 351 351 349 349 351 351 347 345 345 346 345 346 346 346 346 346 346 345 345 345 345 343 340 335 329 327 329 335 339
326 324 323 323 324 325 327 327 326 326 325 326 328 329 328 329 328 328 330 331 330 332 333 334 335 334 334 334 334 334 334 332 332 332 333 333 334 337 341 344 345 345 346 347 347 345 345 346 346 347 347 348 349 349 350 350 350 350 350 350 352 352 351 348 346 345 345 346 346 346 347 346 346 345 345 345 346 345 344 340 335 328 325 328 335
325 324 324 325 326 327 326 325 326 325 325 325 326 327 328 329 329 329 330 330 328 330 331 332 334 334 334 334 335 335 334 334 334 333 333 332 333 337 341 341 341 344 345 346 346 345 344 345 345 345 346 347 348 349 350 350 350 350 350 351 351 352 352 350 348 346 346 345 346 346 347 347 346 346 345 345 346 346 345 344 340 334 327 324 328
326 325 325 327 327 326 326 327 326 326 326 326 326 327 327 328 329 329 330 329 329 330 331 331 332 332 333 333 334 335 334 334 334 334 333 333 332 335 339 339 340 344 344 343 345 345 343 343 344 344 345 346 346 347 349 349 349 349 349 350 351 351 351 351 350 348 346 345 345 346 347 346 346 346 346 346 345 346 346 346 345 341 333 326 324
326 325 325 326 324 324 326 326 327 326 327 327 326 326 327 326 327 328 328 328 329 330 331 331 331 331 331 331 332 333 333 333 333 334 334 334 333 333 335 337 337 340 343 343 343 344 343 344 343 342 344 344 344 346 347 348 349 349 349 349 350 351 351 352 351 349 347 346 345 346 346 346 346 346 346 346 345 346 346 346 346 346 341 334 326
325 324 323 323 323 324 326 326 326 326 326 326 326 326 326 325 325 326 326 326 327 328 329 329 329 329 329 330 330 331 331 331 332 333 335 335 333 333 333 334 336 338 341 342 342 342 343 344 342 341 341 343 343 344 346 346 347 347 348 349 351 352 351 351 351 349 348 347 346 346 346 346 346 346 346 346 346 346 346 346 346 347 347 343 336
325 323 322 323 323 324 325 325 325 325 324 325 324 324 325 325 324 324 324 325 325 326 327 327 327 327 328 329 330 329 329 330 331 332 334 335 335 334 334 333 335 337 338 339 340 341 340 342 343 341 340 341 341 342 344 345 346 347 348 348 350 352 351 350 349 350 351 350 347 346 346 346 346 345 345 345 346 346 346 346 346 347 347 347 344
324 323 320 321 322 322 324 323 323 323 322 322 322 321 322 324 322 320 320 322 323 324 326 325 325 326 327 328 329 328 328 329 330 331 332 334 335 335 334 333 333 334 335 335 337 338 337 338 341 342 342 339 337 339 341 342 345 346 346 347 348 349 349 348 348 350 352 352 349 346 346 346 346 345 345 345 345 346 346 346 346 346 347 348 348
323 322 319 319 320 320 322 321 321 321 320 319 319 318 319 322 321 316 316 318 319 320 322 322 321 323 324 326 327 328 328 328 329 330 331 332 333 333 333 333 333 333 332 332 333 335 335 334 337 340 340 338 336 337 337 339 342 343 344 346 347 347 348 347 348 349 350 350 349 347 345 345 346 345 345 345 345 346 346 346 346 346 347 348 348
322 321 320 320 320 320 320 320 320 320 318 317 318 317 317 320 320 317 315 315 316 318 319 319 318 319 320 322 323 325 327 328 329 330 330 331 331 331 332 332 334 333 332 332 332 333 334 333 334 335 336 338 339 338 336 338 339 341 343 344 345 346 347 347 347 348 346 347 348 347 346 345 345 345 345 345 345 345 346 346 346 346 346 347 348
321 321 321 320 320 319 319 319 319 319 317 317 317 317 317 319 319 318 315 314 315 317 318 318 318 318 319 321 321 322 324 327 328 328 329 330 330 331 331 331 332 332 332 332 332 332 332 332 332 333 334 336 338 339 341 341 338 338 341 342 343 345 345 345 346 346 346 346 347 347 346 346 345 345 345 345 345 345 345 345 345 345 346 346 348
321 321 320 319 318 318 318 318 318 318 316 316 316 315 315 316 317 318 316 315 316 317 318 318 318 318 319 320 322 323 324 324 325 327 328 328 329 329 330 330 330 330 330 331 331 331 331 330 331 333 333 333 335 338 341 340 338 340 340 341 342 343 344 344 345 345 347 347 347 347 348 348 346 345 345 345 345 345 344 345 345 345 346 346 347
318 318 316 315 316 317 317 317 318 317 314 313 313 311 311 312 314 316 316 315 316 317 317 318 318 318 319 320 321 322 323 323 323 325 326 326 327 327 328 328 328 328 329 329 329 330 330 331 331 331 330 331 332 334 335 336 338 342 343 342 342 342 343 344 345 345 346 346 347 348 348 349 348 347 346 345 345 345 345 345 345 345 346 346 347
314 314 311 310 313 315 315 314 316 316 312 309 307 306 307 307 309 313 313 313 315 316 317 317 318 319 319 319 320 320 320 321 322 322 322 322 323 325 326 327 328 329 329 328 328 328 329 330 331 330 330 332 334 334 332 334 337 339 339 340 342 342 341 342 343 344 345 345 346 347 348 349 349 349 347 346 346 345 345 345 345 345 346 346 347
310 310 307 307 310 313 313 313 315 315 310 305 304 304 305 304 307 312 313 313 315 316 316 317 318 319 319 319 319 320 320 320 320 319 319 319 321 323 323 324 326 327 327 327 327 328 328 329 330 331 331 333 334 334 332 333 335 336 338 339 340 341 340 340 342 343 344 345 344 345 346 347 348 347 346 347 348 347 346 346 345 345 345 346 346
309 307 307 309 311 312 312 312 313 313 307 303 304 304 304 304 306 312 314 313 315 316 316 317 318 318 319 318 318 319 319 319 318 318 318 319 321 321 321 321 322 324 325 325 326 327 327 328 329 331 331 332 332 331 331 332 333 335 337 338 338 339 339 340 342 342 343 343 344 344 345 346 347 346 346 347 348 347 347 348 347 345 346 346 347
310 309 309 311 312 312 312 311 312 311 306 303 303 303 304 303 305 311 314 313 314 315 315 316 317 317 318 318 318 318 317 317 317 317 317 319 320 320 319 320 321 323 324 324 325 326 327 328 329 330 331 331 330 330 330 331 331 333 334 335 336 337 338 340 342 343 343 343 343 344 344 345 345 346 346 346 346 346 347 349 349 347 345 345 346
311 311 311 312 312 311 311 311 311 309 306 303 303 303 303 303 305 310 313 313 313 315 314 315 316 317 317 317 317 317 316 316 316 315 316 317 318 318 319 320 321 323 324 323 323 324 325 326 328 329 330 330 330 331 330 330 330 331 332 333 334 336 337 338 340 341 341 341 341 343 344 344 345 345 344 345 345 346 346 347 348 348 347 345 344
311 311 311 311 311 311 311 310 310 309 306 304 303 303 303 303 307 311 313 312 313 314 314 314 315 316 316 315 315 315 315 315 315 315 315 315 317 318 318 319 320 321 322 323 323 323 323 324 325 327 328 328 330 331 331 331 331 331 332 332 332 334 335 336 337 338 339 339 340 341 342 343 344 344 343 344 344 345 347 346 347 348 348 346 344
311 311 310 310 310 310 310 310 310 310 308 304 303 303 302 304 308 311 312 312 313 313 313 313 314 315 314 314 314 314 314 314 314 315 315 315 316 317 318 319 319 320 321 322 321 321 322 323 323 323 325 326 326 327 327 328 330 330 331 331 330 331 333 334 335 336 338 339 340 340 341 342 342 343 343 344 344 344 346 346 346 346 347 346 346
311 311 310 310 310 310 310 309 309 310 309 305 303 304 302 304 309 311 311 311 312 313 313 312 313 314 313 313 313 313 312 313 313 314 314 314 316 316 316 318 319 319 320 320 319 320 321 321 322 323 324 325 324 325 327 328 327 327 328 329 329 330 332 334 335 336 338 339 339 341 341 341 341 341 341 341 342 342 343 345 344 344 345 346 346
311 311 311 310 310 310 310 309 309 310 310 306 304 304 302 304 308 310 310 311 311 312 312 312 312 313 312 312 312 311 310 311 313 313 313 313 314 314 314 316 317 318 318 318 319 319 320 320 321 322 324 325 324 325 327 329 329 328 328 329 329 329 331 333 334 336 336 337 338 339 340 340 341 341 341 340 341 341 342 342 343 343 344 345 345
311 311 310 310 310 310 310 310 309 309 310 307 305 304 303 303 307 309 309 310 310 311 311 311 311 312 312 312 312 310 309 311 312 311 312 311 311 311 312 313 314 315 315 317 318 319 319 320 320 321 323 324 324 324 325 327 328 328 328 328 328 328 330 331 332 333 334 335 337 336 337 338 339 340 341 341 341 341 341 342 342 342 343 343 343
311 311 310 310 310 310 310 310 310 309 310 308 306 304 304 302 304 307 309 309 310 310 310 310 310 310 310 311 310 309 308 309 309 308 309 308 307 308 308 310 310 311 313 315 317 318 318 319 320 320 322 323 323 324 324 325 326 327 327 328 327 328 330 331 331 331 332 334 336 335 335 337 337 338 339 341 341 342 342 341 341 341 342 343 343
Wind_Speed
21 20 21 22 22 23 24 25 24 24 26 26 26 26 25 25 25 24 25 27 28 28 26 23 24 24 23 22 20 19 20 19 18 19 19 17 14 13 16 17 20 20 17 17 17 17 16 17 17 17 16 16 16 16 15 15 15 16 16 16 16 17 18 18 18 18 18 18 18 17 17 17 18 17 16 18 21 20 19 18 17 16 15 13 12
17 17 18 18 17 17 18 19 19 19 21 23 22 22 22 22 23 23 23 24 25 26 25 22 22 22 22 22 21 21 21 20 20 19 19 18 13 13 17 17 19 20 18 17 17 17 17 17 18 18 17 17 17 17 16 16 16 16 16 17 17 17 17 18 18 18 18 18 18 18 18 18 17 17 16 16 17 17 15 14 14 14 14 13 13
15 15 14 13 12 12 12 12 13 13 14 16 16 17 18 20 21 22 22 23 23 23 21 19 20 20 20 21 21 21 21 21 20 18 18 18 16 16 16 16 18 20 18 17 17 16 16 17 18 18 18 17 18 17 17 17 17 17 17 16 16 16 17 18 18 18 17 17 18 18 18 18 17 16 16 16 16 16 15 15 14 14 14 14 13
12 12 12 11 11 11 10 10 10 10 11 13 14 14 16 17 17 19 20 20 20 20 19 19 19 18 18 20 20 21 21 22 21 21 20 20 19 17 14 15 17 20 20 19 18 17 17 17 18 18 18 18 18 18 17 18 18 18 18 17 16 16 17 18 18 18 17 17 18 17 17 17 17 17 17 17 17 17 17 16 15 14 15 15 14
10 10 10 10 10 10 9 9 9 9 10 11 12 12 13 14 14 15 16 15 15 16 17 19 19 18 18 19 20 21 21 22 22 22 21 21 19 14 13 15 16 19 21 21 20 19 18 18 18 18 18 18 18 18 18 18 18 19 18 18 17 17 17 17 18 18 18 18 18 17 18 17 17 17 17 17 17 17 17 16 15 15 15 14 14
9 9 9 9 9 8 8 8 8 8 8 9 10 10 11 12 13 13 13 13 14 15 16 18 18 18 18 19 20 20 20 20 21 21 20 20 17 14 14 15 15 17 19 21 22 21 19 19 19 19 18 18 18 18 18 18 19 19 19 18 18 18 18 18 18 18 18 18 18 17 18 18 17 17 17 17 17 17 16 16 16 16 15 14 13
7 8 8 8 7 7 7 8 8 7 7 8 8 9 10 11 11 12 12 13 14 14 15 16 18 18 18 19 19 19 19 19 19 19 18 18 16 15 16 16 16 17 17 18 19 21 21 20 20 20 19 18 18 18 18 19 19 19 19 19 19 19 18 18 18 18 18 19 18 18 18 18 18 19 19 18 18 18 16 16 16 16 15 14 14
7 7 7 7 7 7 7 7 7 7 7 8 9 9 10 10 10 11 11 12 12 13 13 14 17 17 16 16 17 17 18 16 16 16 15 15 14 15 16 17 17 17 17 17 16 19 21 21 20 20 20 19 19 19 19 19 19 19 20 20 19 19 19 19 19 19 19 19 18 18 18 18 19 19 19 19 19 18 17 17 17 17 16 15 14
8 7 8 8 8 7 7 7 8 8 8 9 9 9 9 10 11 10 10 11 11 11 12 13 14 15 15 15 15 15 16 16 15 15 16 16 15 15 17 18 18 18 18 18 16 16 18 20 21 20 20 20 20 20 19 19 19 19 20 20 19 19 19 19 20 20 19 19 18 18 19 19 19 19 19 19 19 19 18 18 17 16 16 15 15
9 9 8 9 8 8 7 8 8 8 9 9 9 9 9 9 10 9 8 9 9 9 10 11 11 13 14 15 14 14 15 16 15 16 16 16 16 16 18 18 18 19 19 18 18 17 16 18 20 21 21 21 21 21 21 20 19 19 19 20 20 19 19 20 20 20 20 19 18 19 19 19 19 19 19 19 19 20 19 18 17 17 16 16 15
10 10 9 9 9 8 7 7 7 8 8 8 8 8 9 9 9 9 8 8 8 8 8 9 10 12 15 15 14 14 14 15 15 14 14 15 17 19 19 18 18 18 19 19 18 17 17 17 18 21 22 22 22 22 21 21 20 19 19 20 20 20 20 20 20 19 20 19 19 19 19 20 20 20 19 19 19 20 20 19 18 17 17 16 16
11 11 10 10 10 10 9 8 7 8 8 8 8 8 8 8 9 9 8 8 8 8 7 8 11 12 14 14 14 15 14 15 15 14 14 16 17 18 17 18 19 19 18 19 19 18 18 17 18 20 20 21 22 22 22 21 21 20 19 20 20 20 20 20 20 20 20 19 19 19 19 20 20 20 20 19 19 19 20 20 19 18 18 17 17
10 10 10 10 10 10 10 9 9 9 9 9 9 9 9 8 8 8 8 8 7 8 7 8 9 9 10 11 13 14 14 15 16 15 16 15 13 15 16 17 18 19 19 19 19 19 19 18 18 19 17 18 21 22 22 22 21 21 20 20 20 21 21 21 21 20 20 20 19 19 19 20 20 21 21 21 20 20 20 20 20 20 19 19 18
9 8 9 8 8 9 9 9 9 9 10 10 10 10 10 10 9 8 8 7 8 8 8 7 8 8 10 11 12 11 11 14 15 14 15 14 12 14 15 16 17 18 19 19 19 20 20 19 19 19 18 18 20 21 22 22 22 21 21 20 20 21 21 22 21 21 20 20 20 19 19 20 20 21 21 22 21 21 20 20 20 20 20 19 19
10 10 9 9 8 8 8 8 9 9 9 9 10 11 11 11 11 10 9 8 8 10 10 8 7 7 8 9 10 8 7 10 12 12 13 13 13 14 15 16 17 18 18 19 20 20 20 20 20 19 19 19 19 19 20 21 22 21 21 20 20 19 20 21 21 21 20 20 20 20 19 19 19 20 21 21 22 22 22 21 21 21 20 20 19
11 11 11 11 11 10 8 8 8 8 8 9 9 10 10 10 10 10 10 9 8 9 10 9 7 7 7 6 7 7 5 5 7 9 11 12 13 14 14 16 17 17 19 19 19 20 20 21 21 20 20 20 19 19 19 21 21 21 20 20 20 19 19 19 20 20 21 21 21 20 20 20 19 19 20 21 22 22 23 22 22 21 21 20 20
11 11 11 11 11 11 10 9 9 8 7 8 8 9 9 10 9 9 10 10 10 8 8 8 8 8 7 6 5 5 5 6 6 7 9 11 12 13 13 15 17 17 19 19 19 20 20 21 21 21 21 21 21 20 20 21 21 22 21 21 21 20 19 19 19 20 21 21 21 21 20 20 20 19 20 21 21 22 23 23 23 22 21 21 20
12 12 11 10 10 10 10 10 10 10 8 8 8 8 9 9 9 9 9 9 10 9 8 8 8 8 8 7 7 6 7 8 8 7 7 9 10 12 12 15 17 18 18 19 20 20 20 21 22 22 22 22 22 22 21 21 22 23 22 22 22 21 21 21 20 20 20 20 21 21 21 21 20 19 20 20 21 21 22 23 23 22 21 21 21
12 12 11 11 10 10 11 11 11 11 10 9 9 9 9 9 8 8 9 9 9 10 9 9 8 7 7 8 8 8 8 8 8 8 8 8 9 10 12 15 18 19 20 19 19 21 22 22 22 22 23 22 23 23 22 22 23 23 23 22 21 21 22 21 21 20 19 19 20 21 22 21 21 20 20 20 20 21 22 22 23 22 21 21 21
12 12 12 11 11 10 10 10 11 11 10 9 9 9 9 9 8 8 8 8 8 9 9 9 9 8 8 8 8 8 8 8 8 9 8 10 12 11 11 13 16 19 21 20 19 22 24 23 23 23 22 22 22 23 23 22 22 23 24 22 21 21 21 21 21 21 20 19 19 20 21 21 22 21 20 20 21 21 21 22 22 21 21 21 21
12 12 12 12 12 11 10 10 10 10 10 9 9 9 9 9 8 8 8 8 8 8 9 9 9 10 10 9 8 7 8 8 8 9 9 11 13 12 12 13 14 16 18 20 20 23 24 22 23 24 21 21 22 22 23 22 22 23 24 24 21 21 21 22 22 21 21 21 20 20 20 20 21 21 21 21 21 21 21 22 21 21 21 20 20
12 12 12 12 11 11 10 10 10 10 10 10 9 9 9 9 9 9 9 8 8 8 9 9 9 10 10 10 10 9 8 7 7 8 9 10 11 13 13 12 13 13 15 17 18 21 23 21 22 24 21 20 21 21 23 23 23 22 23 24 22 21 22 22 22 22 21 21 20 20 19 19 20 21 22 22 22 22 21 21 21 21 21 20 20
11 11 12 12 12 11 10 9 9 9 10 10 9 9 9 9 9 9 9 9 8 8 8 8 9 9 9 10 10 10 10 9 7 8 9 10 10 13 13 12 15 15 12 14 15 17 21 21 21 23 22 20 20 20 21 23 24 23 22 24 22 22 23 22 22 22 21 21 20 20 19 19 19 20 20 21 22 22 22 22 21 21 21 21 20
10 11 11 11 12 11 10 10 9 9 9 10 10 10 10 10 9 9 9 9 9 9 8 8 8 8 9 9 9 9 10 10 9 8 9 11 10 12 15 14 15 16 12 12 14 15 17 19 20 22 22 21 21 20 20 21 23 24 24 24 23 22 23 23 23 23 22 21 20 20 19 19 19 19 19 20 20 22 22 22 22 21 21 21 20
9 10 10 10 10 11 11 11 10 10 10 10 10 10 10 10 9 9 9 9 9 9 9 9 9 9 9 9 9 10 10 10 10 8 8 10 10 11 14 14 15 16 14 12 12 13 14 17 19 20 19 20 20 20 20 19 20 23 25 24 23 24 24 24 25 24 24 23 22 21 20 20 19 19 19 20 20 20 21 22 22 22 22 21 20
9 10 10 9 9 10 10 10 10 10 10 10 10 9 9 9 9 9 9 9 9 9 9 9 9 10 10 10 10 11 11 10 10 9 8 9 10 11 12 12 13 15 15 13 12 12 13 14 17 18 17 18 20 20 20 20 19 22 24 22 24 25 26 26 26 26 26 25 24 23 22 21 21 20 20 20 20 21 21 22 23 23 22 22 21
9 10 10 9 9 10 9 9 10 10 10 9 9 9 9 9 9 9 9 9 9 9 9 9 10 9 10 10 10 10 11 11 11 10 9 8 9 10 11 12 11 12 13 14 13 13 13 12 13 15 14 14 17 19 19 20 19 21 23 21 22 25 26 27 27 28 28 27 26 24 24 23 22 21 21 21 21 21 22 22 23 23 23 23 22
9 9 9 8 9 9 9 9 9 10 9 9 9 9 9 9 10 9 8 9 9 8 9 9 10 10 9 10 10 10 10 10 11 11 11 11 10 9 9 11 11 11 12 13 13 12 11 11 11 12 10 10 14 16 17 17 17 19 20 20 20 21 24 27 27 29 29 28 27 26 25 24 23 23 22 22 21 22 22 23 23 24 24 24 24
8 8 8 8 7 8 8 8 9 9 9 9 9 9 9 9 10 10 9 9 9 9 9 8 9 10 9 10 10 10 10 10 10 11 12 12 12 10 9 9 10 11 11 11 13 13 11 9 10 11 9 7 11 13 12 15 18 18 17 19 19 19 22 25 27 28 30 29 28 27 26 26 25 24 23 23 22 21 22 23 23 24 24 24 25
8 8 8 7 7 7 8 9 9 8 8 8 8 9 9 9 10 10 10 10 10 10 10 9 9 9 9 9 10 10 10 9 9 10 10 11 12 11 9 9 9 10 10 11 13 14 12 9 9 11 10 6 9 10 9 11 16 17 16 16 17 18 21 23 25 27 29 30 29 27 27 27 26 26 25 24 23 22 21 22 22 23 24 24 25
8 8 8 7 7 8 8 9 9 9 9 8 8 8 8 8 9 10 11 11 11 10 10 9 10 10 9 9 9 10 10 10 10 10 10 10 11 11 10 10 9 9 10 12 12 13 13 12 9 10 11 9 9 11 11 10 12 15 16 15 15 18 20 21 23 25 28 30 30 29 28 28 28 27 26 25 24 23 22 21 21 22 23 24 24
8 8 8 8 8 8 8 8 9 10 10 10 9 9 9 8 9 10 10 10 10 10 10 10 10 10 11 10 10 10 10 10 10 10 10 10 10 10 11 11 11 10 10 11 12 13 13 12 10 9 10 11 12 12 12 12 14 16 16 16 16 18 18 19 22 25 27 29 30 30 29 29 29 29 28 27 26 25 24 23 22 22 22 23 24
8 8 7 8 9 9 9 9 9 10 10 10 10 10 10 10 9 10 11 10 10 10 11 11 10 10 11 11 11 11 11 11 11 10 11 10 10 10 10 11 11 10 10 11 12 13 13 12 11 10 10 10 11 11 12 13 16 18 17 16 15 15 16 19 21 22 23 26 29 30 30 29 30 30 29 29 28 26 25 24 24 23 23 23 24
8 8 7 8 9 9 9 9 9 9 10 10 10 10 10 10 10 10 11 11 11 11 11 12 11 11 11 11 12 12 11 11 11 11 11 10 10 11 10 10 10 10 10 10 11 13 13 11 11 12 11 11 10 10 12 13 13 16 18 18 16 15 18 21 20 17 18 22 26 29 30 30 30 30 30 30 29 29 27 26 26 25 24 24 24
8 7 7 8 8 8 9 10 9 10 10 10 11 11 10 10 10 10 11 11 11 11 11 12 11 11 11 10 11 12 11 11 11 12 11 10 10 11 11 11 11 10 11 11 11 13 14 12 10 11 12 13 12 11 12 12 12 14 17 20 20 20 20 22 22 19 17 20 23 26 29 30 31 31 30 31 30 30 29 28 28 27 26 25 24
8 8 8 8 8 9 9 10 10 11 11 11 11 11 11 11 11 12 12 11 11 11 10 11 12 11 11 10 10 11 11 11 11 12 11 11 10 11 10 10 10 11 12 12 12 13 14 14 13 11 12 14 14 13 12 12 12 13 15 18 20 21 21 22 23 21 19 20 22 23 25 28 30 31 31 31 31 31 31 30 30 29 29 28 26
9 9 9 8 8 9 8 9 10 9 9 10 11 11 11 11 11 13 13 12 11 11 10 11 11 11 11 10 10 10 10 10 11 12 12 11 11 11 10 10 10 10 11 12 13 12 13 15 14 13 13 14 14 14 14 13 13 13 13 15 17 18 19 20 20 19 20 22 24 24 24 25 29 31 32 32 32 32 32 32 32 31 31 30 29
8 8 9 8 8 9 9 9 8 7 8 9 9 10 11 10 10 12 12 12 12 11 11 11 11 11 11 11 11 10 10 9 11 13 13 12 12 11 11 11 12 11 11 12 12 11 12 13 14 14 14 13 13 13 13 13 15 15 14 13 14 16 17 17 17 17 19 23 26 27 25 25 27 30 31 33 34 34 34 33 33 33 33 32 31
8 8 9 9 9 10 10 9 7 8 10 10 9 10 11 11 10 11 12 12 11 11 11 12 12 11 10 9 9 9 9 9 11 13 12 12 12 12 11 12 14 14 13 12 12 12 12 12 13 14 14 14 14 12 11 13 14 14 15 14 14 14 13 14 15 16 18 21 24 26 26 26 27 29 30 32 33 34 35 35 35 35 35 34 33
8 9 10 10 10 10 10 9 8 10 11 12 12 12 12 12 11 11 11 11 11 11 11 12 11 10 9 8 7 8 7 8 10 12 12 12 12 12 13 14 15 16 15 14 14 14 13 13 13 13 14 14 14 14 14 13 12 12 13 14 14 14 13 13 14 15 17 20 22 24 26 26 27 28 29 30 31 32 34 35 36 36 36 36 35
11 10 11 11 10 10 10 10 9 11 13 14 15 15 14 14 13 11 11 11 11 11 11 11 10 9 9 8 7 8 8 7 9 11 12 13 13 13 14 14 14 15 16 15 14 14 13 13 13 13 13 13 13 14 15 14 12 13 14 14 13 13 14 14 14 15 17 19 21 23 25 26 27 28 29 29 29 30 31 33 35 36 37 37 37
12 12 12 11 11 10 11 11 10 11 14 17 17 16 15 14 13 12 11 11 11 11 10 9 9 9 9 8 7 9 9 9 10 11 11 11 12 13 14 14 14 15 15 15 15 14 13 14 14 13 13 13 13 14 15 14 13 13 13 13 13 13 14 15 15 15 16 17 19 21 21 23 24 27 29 30 28 28 29 31 34 36 37 37 37
12 12 12 11 11 11 11 12 10 10 15 18 17 16 16 15 13 11 10 10 10 10 9 9 9 9 10 9 8 9 10 10 10 10 8 7 10 13 14 14 14 14 14 14 14 14 13 13 14 13 13 14 15 14 15 15 14 13 13 14 14 14 14 15 14 14 14 15 16 18 18 19 19 22 26 29 29 29 29 27 30 33 34 35 35
12 13 13 11 11 10 10 10 10 11 16 18 17 16 16 15 12 9 9 9 9 8 9 9 9 9 10 10 9 9 11 11 12 12 10 9 9 10 10 10 10 11 13 13 12 12 12 12 13 13 12 13 15 15 15 16 16 15 15 16 15 14 14 15 14 13 14 14 15 16 17 17 17 19 23 25 27 28 28 25 25 29 32 32 32
12 13 12 11 10 10 10 10 9 12 18 20 18 17 16 14 11 9 7 9 8 7 8 8 8 9 10 10 9 10 11 12 13 15 14 12 11 9 8 7 7 9 11 11 10 10 10 11 12 12 12 12 13 13 14 16 16 16 17 17 16 16 16 15 15 15 15 15 15 16 17 17 16 18 21 22 22 24 26 26 26 28 30 33 33
11 11 11 11 11 10 10 10 10 11 18 23 21 20 18 13 11 10 8 8 7 7 8 8 7 8 10 11 10 11 13 14 15 15 15 14 12 9 8 7 7 7 7 8 9 9 8 8 10 11 12 12 13 13 13 14 15 16 17 17 17 17 18 17 17 17 16 15 15 17 18 17 16 18 20 20 20 21 22 24 25 25 26 29 32
10 10 11 11 11 10 10 11 10 9 16 24 24 22 20 15 11 11 9 8 8 7 8 9 8 8 11 12 12 13 14 15 15 14 14 14 12 9 9 8 8 8 7 7 9 10 10 10 10 10 10 12 13 14 15 15 16 16 16 17 18 18 19 19 18 17 15 13 14 16 17 16 15 17 18 19 19 20 20 21 22 22 23 25 29
10 9 10 10 10 10 10 11 11 9 15 23 26 24 23 18 13 11 10 8 9 8 8 9 8 7 10 13 13 14 14 15 14 13 14 14 11 10 10 8 8 8 8 8 10 11 11 12 11 10 10 11 12 12 13 14 16 17 16 15 16 16 17 17 17 15 14 12 12 13 15 15 14 15 16 16 17 18 19 20 21 22 24 25 26
10 9 10 10 10 10 10 10 12 10 13 21 26 25 24 20 15 12 11 10 9 8 8 9 7 6 9 13 14 14 14 15 15 14 14 14 12 12 12 10 9 8 9 9 10 10 11 11 11 10 11 12 12 13 14 13 12 14 14 14 15 15 15 16 16 15 14 13 11 12 15 15 12 12 13 14 14 15 15 17 20 21 23 24 24
10 10 11 11 10 10 9 9 11 11 12 19 24 25 25 22 16 13 12 11 9 9 9 8 6 6 8 11 13 15 16 16 16 15 16 16 15 14 14 13 11 10 11 10 9 8 9 9 10 10 10 11 11 13 16 16 15 15 14 14 16 15 14 15 16 16 15 13 12 13 15 16 13 10 10 12 13 13 12 12 15 17 21 23 23
9 9 10 11 10 10 10 9 10 11 11 16 22 25 25 24 20 16 14 12 10 10 9 9 8 8 8 9 12 15 16 16 17 18 18 18 17 17 16 15 13 14 13 11 9 10 9 8 9 9 8 10 10 10 12 15 15 16 15 15 16 16 16 16 16 16 15 12 12 13 13 14 13 11 10 11 11 10 9 8 8 11 15 18 21
Wind_Direction
291 293 292 288 287 284 282 281 280 278 275 271 270 272 273 274 273 271 270 269 268 268 266 263 263 263 261 261 263 262 259 256 252 250 249 248 247 251 251 240 230 226 220 216 218 220 221 218 217 215 214 215 216 218 215 210 214 214 210 209 209 209 209 208 209 209 207 208 210 206 201 203 203 198 200 200 196 196 203 201 194 195 196 195 197
297 300 296 292 292 290 289 287 287 283 275 270 269 270 272 272 272 273 273 271 270 269 265 258 258 261 259 259 259 260 260 256 251 250 250 249 243 245 253 247 231 229 227 222 221 220 219 215 214 214 214 215 215 217 216 211 214 216 213 211 210 211 210 209 211 210 208 208 209 207 205 206 206 203 203 204 202 204 208 205 200 199 200 202 202
298 300 299 301 303 304 302 296 295 292 282 275 272 272 273 273 272 272 271 271 271 268 260 252 254 255 256 258 257 258 259 255 250 246 245 247 244 237 247 253 237 229 231 230 228 223 220 218 213 211 212 215 216 216 215 212 215 218 216 213 211 213 212 209 211 212 210 209 211 208 206 208 207 206 207 207 206 207 209 209 206 205 207 209 208
301 306 309 313 313 310 308 304 302 297 288 283 280 279 278 277 275 271 270 270 268 264 255 250 251 250 252 255 255 257 257 254 249 245 244 247 248 239 239 255 246 233 231 233 234 227 224 223 217 211 211 213 215 216 214 213 215 219 218 215 213 214 213 210 209 212 210 210 212 211 208 208 207 207 208 209 208 206 207 210 209 209 210 211 211
311 315 317 318 315 312 313 311 307 300 293 289 288 286 283 280 277 274 274 272 268 264 256 251 250 248 248 251 254 257 257 254 251 248 247 245 243 238 236 244 245 238 233 232 234 230 226 225 220 214 212 212 214 214 213 213 215 219 220 217 216 217 216 212 210 209 211 211 211 212 211 209 209 209 207 209 210 209 209 209 210 211 211 210 210
320 321 322 321 319 320 318 315 314 311 305 301 298 293 286 282 280 279 281 278 273 267 258 254 254 251 249 252 254 255 253 250 248 246 244 241 234 231 234 236 235 235 234 232 232 231 228 226 222 217 214 213 213 213 212 213 215 218 220 217 216 218 217 215 213 209 210 212 210 212 212 211 211 211 209 209 209 210 211 209 210 212 210 209 207
336 339 339 332 328 324 319 317 317 316 314 314 310 302 293 288 285 283 283 280 277 274 266 259 260 258 253 253 251 251 252 248 245 243 237 233 228 226 233 234 231 229 230 232 232 231 229 227 225 222 219 216 213 213 212 213 215 217 219 218 217 217 216 216 216 213 212 213 211 211 212 212 213 212 211 210 208 209 211 209 210 213 211 208 205
4 4 1 357 349 337 331 326 319 322 329 328 322 310 300 301 301 295 291 285 279 277 273 267 266 261 252 250 250 249 251 245 239 236 229 228 225 225 231 233 230 227 225 226 232 234 231 228 227 225 224 221 215 214 213 213 215 216 218 220 220 218 217 216 216 214 214 215 214 213 212 213 214 215 214 213 211 209 212 212 212 214 212 209 208
23 20 15 10 4 355 350 340 332 336 337 333 328 320 311 308 308 302 296 292 285 278 275 272 267 257 243 243 248 248 249 245 237 231 226 224 221 223 230 231 229 227 225 222 226 233 234 231 227 225 225 223 218 215 214 214 214 215 218 221 222 220 219 218 216 214 216 217 216 215 214 214 214 216 217 216 215 212 213 215 214 215 214 213 214
29 27 23 14 8 3 356 345 340 340 335 335 336 332 328 322 315 312 306 302 297 285 276 270 261 253 244 241 240 240 248 250 242 234 228 223 220 225 230 230 228 226 226 224 222 227 233 235 229 225 224 224 221 216 213 213 213 214 217 221 222 221 221 220 217 215 217 219 217 216 217 216 215 216 218 218 216 215 215 216 216 217 217 216 217
26 25 22 14 9 5 1 354 345 342 339 340 340 335 334 330 322 320 317 312 302 288 279 270 262 255 249 245 237 234 243 250 247 240 234 228 223 224 225 226 227 225 226 224 222 222 226 231 231 227 223 222 222 219 215 213 213 213 214 219 221 221 222 221 219 216 218 220 218 218 219 218 217 217 219 218 216 216 216 216 217 217 217 218 219
24 21 18 13 11 9 7 4 355 349 347 344 342 336 333 329 322 321 322 320 310 300 291 279 276 267 256 250 243 239 239 245 246 238 237 237 226 220 220 223 225 224 224 223 222 222 221 224 230 230 224 221 223 221 218 215 214 213 212 215 218 219 220 220 220 218 218 220 219 219 220 221 219 218 219 218 216 217 217 218 219 219 219 220 220
24 19 17 15 13 10 7 5 0 357 354 352 349 344 340 337 329 323 322 322 319 315 307 295 296 291 278 265 252 245 237 240 241 233 238 242 229 223 223 223 224 224 224 223 222 222 222 222 225 228 225 222 224 222 221 220 218 215 212 213 215 217 219 220 220 220 220 220 220 220 221 221 220 219 219 219 218 218 218 219 220 221 221 222 223
24 16 14 13 12 8 3 359 358 356 354 353 350 346 347 349 343 332 326 322 317 316 315 309 308 305 296 286 272 247 227 235 236 231 237 237 227 227 226 224 224 224 223 224 224 222 221 221 222 223 221 221 225 223 221 222 220 218 214 213 213 214 218 219 219 220 221 220 219 220 221 221 219 219 220 220 219 219 219 219 219 221 222 223 225
23 17 12 8 8 7 359 353 353 352 349 347 344 343 345 347 346 342 337 330 320 318 317 312 308 299 288 291 293 273 243 237 228 225 233 232 228 227 225 226 224 223 224 224 225 223 221 220 220 220 218 219 222 221 220 222 221 219 216 214 212 212 215 217 219 219 221 222 221 221 222 223 221 221 221 220 220 219 220 220 220 220 221 223 224
26 20 16 10 6 5 1 354 349 345 340 338 339 339 339 340 341 341 338 335 328 321 313 307 306 299 289 295 301 292 287 259 231 228 228 227 232 229 228 230 225 222 224 223 224 224 222 219 218 218 218 219 219 217 220 222 220 217 217 216 213 212 213 215 218 219 220 222 223 222 223 223 224 222 221 221 221 221 221 221 222 222 222 223 224
28 23 19 13 6 2 1 357 351 349 342 337 335 335 337 336 335 337 336 332 330 323 311 308 306 300 298 302 297 292 309 311 297 269 233 226 230 226 229 233 228 224 224 225 225 224 223 221 218 217 217 218 218 216 218 221 221 220 218 216 214 214 213 214 216 218 220 221 223 224 224 223 223 223 222 222 221 221 222 222 223 224 224 225 226
20 19 16 13 8 2 2 0 357 356 352 346 342 338 337 334 330 334 332 329 332 330 324 318 310 303 301 299 293 291 300 308 311 296 264 248 234 226 230 230 227 226 223 225 227 226 224 222 220 217 216 217 218 218 218 220 223 224 221 217 216 215 214 214 214 216 218 219 222 224 224 224 223 223 223 222 222 221 222 223 224 225 226 227 228
14 12 11 8 5 1 1 2 359 357 354 351 347 344 341 336 331 329 328 328 330 328 326 326 319 311 306 302 297 295 296 296 296 297 297 285 260 250 248 233 227 228 225 223 227 230 225 221 221 218 215 216 217 219 219 220 223 225 225 222 219 217 216 215 214 215 216 217 220 222 223 224 224 224 222 222 222 221 221 222 223 224 225 226 228
10 8 4 3 3 359 357 357 354 351 353 351 345 342 341 338 336 331 327 327 326 325 324 326 328 321 316 312 306 300 294 287 282 285 292 288 280 279 272 251 240 236 232 227 229 232 226 220 221 218 214 216 216 217 217 217 221 225 228 227 222 218 217 216 215 215 216 216 217 220 222 223 224 224 223 222 223 222 222 223 223 224 224 225 226
2 1 357 356 357 355 352 351 348 344 347 348 343 340 337 334 335 333 329 326 323 322 318 319 324 323 323 321 317 308 295 287 282 280 278 277 282 289 289 274 256 243 238 236 235 234 226 220 221 217 213 215 215 216 216 215 217 222 228 229 225 220 218 216 216 215 216 218 217 219 221 222 223 224 224 224 224 223 223 224 224 224 225 226 226
351 350 350 350 349 350 348 344 343 340 338 338 337 337 334 330 330 329 328 327 324 320 315 316 319 319 320 319 319 316 306 298 290 287 280 270 276 290 295 292 282 264 244 240 244 241 233 229 224 214 210 213 214 215 214 214 215 217 224 231 227 222 220 216 215 215 216 218 219 219 221 222 223 224 225 226 225 225 224 224 225 226 227 228 228
343 343 346 345 342 343 343 339 337 333 330 329 328 329 328 326 326 325 326 326 322 314 309 312 315 315 314 312 314 316 313 309 302 299 294 281 281 291 293 292 291 285 261 247 249 245 240 236 225 214 210 210 212 214 214 216 217 214 220 230 227 221 222 219 216 217 216 218 221 222 223 224 225 225 226 227 226 226 226 225 226 227 228 229 229
338 336 339 342 340 337 338 339 335 328 326 325 323 322 323 323 321 321 323 322 319 318 317 316 315 315 315 312 310 309 309 309 307 305 300 293 289 288 288 290 289 287 283 263 246 242 244 237 225 220 214 209 209 212 214 217 221 219 219 226 227 222 223 224 221 220 218 218 221 224 226 227 228 229 229 229 229 228 228 227 227 228 229 230 230
335 329 331 337 339 333 332 336 333 328 326 324 323 322 322 321 319 321 324 323 322 321 321 320 317 316 320 320 313 308 309 313 314 313 309 306 302 294 293 295 290 287 290 278 260 256 251 237 231 229 218 210 209 210 213 215 220 226 223 223 227 224 224 227 226 224 222 220 221 224 227 229 231 232 232 233 232 231 231 230 229 230 230 230 231
332 329 333 340 339 333 332 332 330 329 328 326 325 324 323 321 320 325 327 326 326 325 323 322 316 313 316 321 322 322 322 325 325 323 319 315 310 306 304 300 293 290 290 286 280 277 265 248 240 233 221 216 213 209 214 214 216 227 227 222 227 227 225 227 228 227 225 223 223 224 227 230 232 233 234 234 234 233 233 232 232 231 231 231 230
334 334 342 347 343 339 336 330 327 326 326 327 327 325 326 323 320 325 326 325 325 326 328 328 322 315 312 315 321 327 329 329 329 326 322 319 315 313 311 305 299 294 295 293 287 279 274 272 257 239 233 232 223 213 213 214 216 227 227 221 225 229 227 225 226 228 227 226 226 226 227 229 231 233 234 234 234 234 233 232 232 232 231 231 230
341 340 349 349 343 341 337 330 327 325 323 326 327 325 324 321 318 320 321 323 324 325 330 330 327 322 317 315 315 317 317 320 322 322 323 323 322 322 318 313 308 303 302 301 297 290 280 279 275 264 258 242 230 223 217 216 220 226 226 219 219 228 230 226 223 226 228 228 229 229 228 229 229 231 232 233 233 233 232 232 232 232 231 230 229
350 352 358 354 345 341 333 327 324 324 323 322 324 324 323 323 322 319 318 320 322 322 324 328 328 325 322 321 319 314 309 309 313 315 319 322 321 325 323 314 312 309 307 306 307 308 301 287 283 284 281 246 229 231 227 227 227 226 227 223 218 223 230 227 222 223 226 229 230 230 229 229 229 229 229 231 231 231 231 232 232 232 232 230 229
2 6 7 359 348 341 335 331 327 329 329 324 324 325 326 328 328 326 323 322 323 321 319 324 327 324 324 325 324 321 313 310 311 309 312 315 316 319 316 313 314 308 306 308 306 309 313 305 282 277 279 256 230 226 221 236 239 230 226 226 224 226 229 227 223 221 223 228 229 230 229 228 228 228 229 229 229 230 230 231 232 233 233 232 231
6 10 7 356 347 343 348 350 343 346 351 346 339 337 335 335 337 337 333 327 327 326 321 320 321 319 321 323 323 322 317 312 312 311 310 309 312 314 312 313 313 304 303 306 301 304 315 315 297 282 280 269 252 238 226 241 253 238 225 223 227 231 230 230 229 222 220 224 228 229 229 228 228 228 229 229 229 229 228 228 230 231 233 233 232
6 7 360 350 342 341 351 357 351 351 358 358 354 353 352 349 350 348 341 335 332 329 323 322 322 320 318 318 318 317 316 315 312 312 313 309 308 310 310 310 309 307 305 301 299 305 313 316 312 303 290 278 272 264 251 250 251 242 233 226 230 236 231 232 237 230 221 221 225 229 229 228 228 228 229 230 230 230 228 227 227 227 230 232 232
6 2 353 346 345 350 359 3 0 358 0 2 0 358 357 358 1 356 347 345 340 330 326 325 325 322 318 318 317 313 314 316 313 314 319 317 310 306 304 303 307 310 306 301 305 309 311 315 317 316 309 293 282 279 272 262 250 243 238 229 233 243 235 231 236 236 232 228 225 227 229 229 229 229 230 230 230 229 228 227 226 226 226 227 229
2 357 354 350 347 357 7 7 6 4 2 5 5 2 356 356 4 2 350 347 345 339 336 335 331 324 321 322 322 318 316 317 314 313 319 323 319 312 305 300 302 310 311 311 313 309 307 312 313 313 313 307 298 290 282 273 261 252 245 235 232 240 237 232 231 233 242 243 233 228 228 228 228 230 231 231 231 230 229 226 225 225 225 225 226
357 351 355 352 345 359 9 3 1 2 1 3 3 4 0 353 356 1 353 346 347 345 342 339 335 330 328 329 330 326 320 318 316 312 314 323 325 318 310 304 302 304 307 309 310 308 308 308 308 311 309 306 306 301 291 284 276 266 256 246 241 240 239 237 232 226 234 244 241 233 229 228 228 229 231 232 232 231 230 229 226 225 225 225 225
354 353 358 356 355 3 6 360 357 356 356 357 357 0 4 354 347 354 358 352 349 347 341 335 330 328 329 332 334 332 327 323 321 315 313 318 321 317 314 313 309 303 301 299 299 305 308 304 302 306 306 305 305 301 297 293 286 278 268 258 253 249 245 241 237 231 229 239 246 242 235 232 229 228 229 231 232 232 232 231 230 227 225 224 224
3 6 7 4 1 1 2 3 0 353 352 357 356 358 2 357 344 348 358 359 354 350 344 337 329 322 322 324 326 330 332 328 321 318 317 317 317 316 316 321 323 316 309 302 296 299 305 305 303 302 302 305 305 304 304 302 295 289 277 267 263 260 255 250 247 245 241 240 244 243 239 236 234 231 230 229 230 231 232 232 232 230 227 225 224
10 9 10 8 1 0 8 7 357 351 358 4 4 357 357 356 347 345 353 358 355 351 346 344 341 335 331 330 325 325 328 324 314 315 320 320 317 316 316 321 327 326 319 313 307 305 307 307 305 305 304 304 306 311 310 304 302 300 290 277 268 263 262 258 254 251 247 242 241 242 241 239 236 233 231 230 229 229 231 232 232 231 230 228 226
13 6 5 8 5 7 10 3 354 359 4 5 5 358 353 352 348 344 347 352 352 352 350 348 345 340 337 336 329 326 328 318 307 310 316 314 309 311 312 315 322 324 319 314 315 316 315 311 309 308 306 304 305 309 304 300 304 307 302 292 281 271 264 258 252 248 244 242 241 242 243 243 240 237 234 231 229 229 229 230 231 231 230 229 228
6 358 359 6 11 11 7 4 358 355 356 357 359 358 353 349 347 344 345 348 350 354 354 350 346 340 340 342 335 332 329 314 308 313 314 308 306 309 310 309 313 316 312 310 313 318 318 313 310 308 305 303 304 302 300 304 310 308 301 296 290 281 269 258 252 247 244 242 241 240 241 243 244 243 241 237 233 231 230 229 229 230 230 230 229
357 355 358 4 12 13 12 16 7 350 353 1 359 357 355 349 346 346 347 349 354 356 353 351 351 349 352 351 339 333 329 310 304 305 300 300 307 310 308 308 308 307 304 306 311 313 312 309 307 308 305 306 308 303 300 305 306 299 293 294 299 294 280 267 258 252 250 248 244 242 241 243 244 245 246 245 241 237 235 232 230 229 229 229 229
4 4 2 3 14 18 17 25 18 355 357 4 359 356 356 350 347 349 350 354 359 359 354 353 355 356 359 358 345 337 330 314 308 307 301 305 311 306 301 301 299 296 299 305 307 305 305 305 305 306 303 302 306 304 299 298 300 302 301 302 307 304 290 279 268 259 258 255 250 248 245 246 247 246 246 248 246 243 242 239 236 233 231 230 231
18 19 16 15 23 24 21 26 24 2 358 3 359 357 358 353 353 356 354 357 1 358 356 356 355 357 3 3 354 342 335 329 331 338 338 330 317 305 300 301 299 298 299 299 299 300 302 303 303 303 303 300 298 297 297 295 293 298 303 304 305 303 294 289 285 275 268 263 257 254 251 249 248 244 243 247 249 248 246 242 239 238 236 233 232
31 32 29 29 30 29 27 29 28 12 6 5 2 1 359 355 2 10 357 357 3 357 357 359 352 351 0 2 352 342 344 346 345 347 345 337 326 314 311 314 310 302 296 293 294 296 297 297 297 298 301 299 296 296 298 297 294 294 296 296 299 300 292 287 290 290 284 275 264 259 256 252 248 245 244 247 249 249 247 245 243 242 241 237 234
37 38 35 34 34 34 33 31 28 19 15 12 8 7 4 360 15 28 4 357 5 358 357 0 349 347 356 360 357 350 350 347 341 339 335 333 336 335 331 334 323 300 295 296 295 289 284 287 291 292 291 294 297 298 298 297 295 294 292 291 292 293 289 285 286 288 287 283 276 269 264 260 254 250 248 246 247 247 246 246 246 245 243 241 238
37 39 37 35 34 33 33 31 26 16 15 16 14 12 10 10 30 38 11 359 7 359 359 0 351 352 357 360 2 356 347 342 339 337 335 335 341 339 329 334 336 320 311 307 298 292 293 296 294 288 282 282 286 289 292 293 291 289 288 289 290 290 289 288 286 286 287 287 284 277 272 268 263 258 253 248 247 246 244 242 243 245 246 242 240
33 34 33 32 30 28 28 29 26 8 5 14 17 15 13 19 37 34 13 7 12 3 358 357 353 357 355 350 351 349 344 344 344 341 338 342 348 342 326 327 333 331 329 321 311 310 313 312 306 298 287 281 279 279 282 280 278 281 284 285 286 287 289 289 287 288 288 284 284 282 277 275 272 265 260 255 252 250 246 242 240 242 246 242 238
28 26 24 23 22 23 21 24 26 3 355 10 19 17 15 23 37 29 13 13 16 5 357 355 355 0 356 348 347 349 349 351 352 348 345 348 353 348 342 339 328 324 324 319 314 311 310 311 311 302 286 281 278 275 279 278 273 275 279 282 284 286 289 290 289 287 280 269 270 275 276 279 281 274 269 265 260 254 248 246 242 241 243 242 237
24 23 21 16 16 18 14 17 24 9 353 7 19 20 19 25 35 27 15 16 15 6 2 359 357 4 4 355 350 354 357 354 354 354 352 355 356 353 355 356 343 334 327 315 308 301 294 297 300 287 271 273 276 271 273 278 277 278 280 281 282 283 287 289 289 288 285 276 270 270 273 276 276 275 277 276 270 261 253 248 244 241 243 243 241
20 21 21 17 15 13 5 7 19 17 358 3 16 23 24 27 32 26 18 20 15 6 5 3 356 357 3 355 346 351 358 354 352 356 357 0 3 0 360 360 354 346 332 318 316 308 293 289 292 285 273 272 273 271 272 273 277 285 289 287 285 285 288 289 288 289 290 288 283 281 281 277 271 271 279 280 277 272 264 254 245 241 241 242 241
16 16 19 16 11 7 2 1 10 17 7 360 10 21 26 30 35 31 22 21 17 8 4 4 0 356 360 354 342 347 357 356 355 1 3 6 10 7 5 4 1 354 342 328 327 326 316 310 307 305 298 284 274 274 276 274 276 283 287 287 286 285 283 282 286 289 290 293 296 298 297 292 285 281 281 284 285 277 270 270 259 246 244 242 241